Weather History for Guymon, OK

Change the Weather History Date:

Monday, November 19, 2012

  Actual Average Record
Temperature  
Mean Temperature 51 °F 44 °F  
Max Temperature 70 °F 59 °F 83 °F (2007)
Min Temperature 32 °F 29 °F 25 °F (2000)
Degree Days  
Heating Degree Days 14 21  
Month to date heating degree days 228 322  
Since 1 July heating degree days 536 631  
Cooling Degree Days 0 0  
Month to date cooling degree days 0 0  
Year to date cooling degree days 1917 1481  
Growing Degree Days 1 (Base 50)    
Moisture  
Dew Point 28 °F    
Average Humidity 50    
Maximum Humidity 79    
Minimum Humidity 20    
Precipitation  
Precipitation 0.00 in 0.02 in 0.02 in (2001)
Month to date precipitation T 0.37  
Year to date precipitation 10.79 18.50  
Snow  
Snow 0.00 in - - ()
Month to date snowfall 0.0  
Since 1 July snowfall 0.0  
Since 1 September snowfall 0.0  
Snow Depth 0.00 in    
Sea Level Pressure  
Sea Level Pressure 30.09 in    
Wind  
Wind Speed 7 mph (NNW)    
Max Wind Speed 20 mph    
Max Gust Speed 23 mph    
Visibility 10 miles    
Events      
T = Trace of Precipitation, MM = Missing Value Source: NWS Daily Summary

Daily Weather History Graph

Daily Weather History Graph

Search for Another Location

Airport:

Trip Planner

Search our weather history database for the weather conditions in past years. The results will help you decide how hot, cold, wet, or windy it might be!

Date:

Astronomy

Nov. 19, 2012 Rise Set
Actual Time 7:28 AM CST 5:34 PM CST
Civil Twilight 7:00 AM CST 6:02 PM CST
Nautical Twilight 6:29 AM CST 6:33 PM CST
Astronomical Twilight 5:58 AM CST 7:04 PM CST
Moon 12:36 PM CST (11/19) 11:59 PM CST (11/19)
Length of Visible Light 11h 01m
Length of Day
10h 05m
Waxing Crescent, 41% of the Moon is Illuminated
Nov 19
Waxing Crescent
Nov 20
First Quarter
Nov 28
Full
Dec 6
Last Quarter
Dec 13
New

Hourly Weather History & Observations

Time (CST) Temp. Windchill Dew Point Humidity Pressure Visibility Wind Dir Wind Speed Gust Speed Precip Events Conditions
12:53 AM 50.0 °F - 39.9 °F 68% 29.95 in 10.0 mi SW 11.5 mph - N/A   Clear
1:53 AM 42.1 °F 36.6 °F 36.0 °F 79% 29.97 in 10.0 mi SW 9.2 mph - N/A   Clear
2:53 AM 39.0 °F 35.7 °F 34.0 °F 82% 29.99 in 10.0 mi SSW 4.6 mph - N/A   Clear
3:53 AM 37.0 °F 31.0 °F 28.0 °F 70% 30.00 in 10.0 mi NW 8.1 mph - N/A   Clear
4:53 AM 33.1 °F 30.0 °F 26.1 °F 75% 30.01 in 10.0 mi West 3.5 mph - N/A   Clear
5:53 AM 33.1 °F 27.7 °F 26.1 °F 75% 30.06 in 10.0 mi WSW 5.8 mph - N/A   Clear
6:53 AM 42.1 °F 37.1 °F 27.0 °F 55% 30.08 in 10.0 mi NW 8.1 mph - N/A   Clear
7:53 AM 43.0 °F 38.2 °F 25.0 °F 49% 30.10 in 10.0 mi NNW 8.1 mph - N/A   Clear
8:53 AM 50.0 °F - 27.0 °F 41% 30.10 in 10.0 mi NW 6.9 mph - N/A   Clear
9:53 AM 57.9 °F - 26.1 °F 30% 30.09 in 10.0 mi NNW 9.2 mph - N/A   Clear
10:53 AM 62.1 °F - 27.0 °F 26% 30.11 in 10.0 mi North 18.4 mph - N/A   Clear
11:53 AM 64.0 °F - 27.0 °F 25% 30.10 in 10.0 mi NNE 11.5 mph - N/A   Clear
12:53 PM 68.0 °F - 26.1 °F 21% 30.08 in 10.0 mi North 12.7 mph - N/A   Clear
1:53 PM 69.1 °F - 27.0 °F 21% 30.07 in 10.0 mi NNE 10.4 mph - N/A   Clear
2:53 PM 69.1 °F - 28.9 °F 22% 30.08 in 10.0 mi NNE 11.5 mph - N/A   Clear
3:53 PM 69.1 °F - 30.0 °F 23% 30.08 in 10.0 mi NE 10.4 mph - N/A   Clear
4:53 PM 66.9 °F - 28.0 °F 23% 30.11 in 10.0 mi ENE 6.9 mph - N/A   Clear
5:53 PM 62.1 °F - 28.0 °F 28% 30.14 in 10.0 mi East 5.8 mph - N/A   Clear
6:53 PM 59.0 °F - 28.0 °F 31% 30.14 in 10.0 mi ESE 3.5 mph - N/A   Clear
7:53 PM 54.0 °F - 28.0 °F 37% 30.16 in 10.0 mi Calm Calm - N/A   Clear
8:53 PM 48.0 °F - 28.0 °F 46% 30.17 in 10.0 mi SW 3.5 mph - N/A   Clear
9:53 PM 39.9 °F - 25.0 °F 55% 30.17 in 10.0 mi Calm Calm - N/A   Clear
10:53 PM 41.0 °F - 27.0 °F 57% 30.16 in 10.0 mi Calm Calm - N/A   Clear
11:53 PM 43.0 °F - 27.0 °F 53% 30.16 in 10.0 mi Calm Calm - N/A   Clear